Location: Unspecified
(35.6961°N, 0.0000°E)
Time: 03:55:05
(UTC+00:00)

S-56A Canister/Altair - Pass Details

Date: 04 June 2019
Orbit: 633 x 2499 km, 38.9° (Epoch: 25 June)

Event Time Altitude Azimuth Distance (km) Brightness Sun altitude
Rises 23:53:53 0° 275° (W) 2,947 - -31.9°
Reaches altitude 10° 23:56:01 10° 279° (W) 2,100 - -31.9°
Maximum altitude 00:00:41 62° 1° (N) 878 - -31.9°
Exits shadow 00:03:06 34° 69° (ENE) 1,389 8.9 -31.9°
Drops below altitude 10° 00:06:58 10° 82° (E) 2,801 10.5 -31.9°
Sets 00:10:13 0° 86° (E) 4,037 11.3 -31.9°
